FW7501 Weather Reports


time (UTC)temp
F
wind
direction
speed
knots
gust
knots
rain 1hr
in
rain 24hr
in
rain mn
in
humidity
%
barometer
mb
20260505201004 51 339 2.6 6.1 0.00 0.00 0.00 74 1021.5
20260505200504 51 341 1.7 4.3 0.00 0.00 0.00 74 1021.5
20260505200009 51 349 1.7 5.2 0.00 0.00 0.00 73 1021.5
20260505195504 51 348 1.7 5.2 0.00 0.00 0.00 73 1021.5
20260505195007 51 10 2.6 5.2 0.00 0.00 0.00 73 1021.4
20260505194514 51 15 0.9 5.2 0.00 0.00 0.00 74 1021.4
20260505194004 51 14 0.9 3.5 0.00 0.00 0.00 74 1021.4
20260505193512 51 17 0.0 5.2 0.00 0.00 0.00 74 1021.4
20260505193011 51 16 2.6 5.2 0.00 0.00 0.00 74 1021.4
20260505192503 51 4 0.9 3.5 0.00 0.00 0.00 74 1021.4
20260505192008 51 4 1.7 3.5 0.00 0.00 0.00 74 1021.5
20260505191513 51 360 0.9 3.5 0.00 0.00 0.00 73 1021.5
20260505191009 51 2 0.9 3.5 0.00 0.00 0.00 74 1021.6
20260505190504 51 352 0.0 2.6 0.00 0.00 0.00 73 1021.5
20260505190005 51 353 0.9 2.6 0.00 0.00 0.00 73 1021.6
20260505185504 52 353 0.9 2.6 0.00 0.00 0.00 72 1021.6
20260505185005 52 353 0.9 2.6 0.00 0.00 0.00 72 1021.5
20260505184006 52 352 0.9 6.1 0.00 0.00 0.00 71 1021.5
20260505183507 52 4 0.9 6.1 0.00 0.00 0.00 72 1021.5
20260505183014 52 333 0.9 3.5 0.00 0.00 0.00 72 1021.5
20260505182504 52 21 0.0 2.6 0.00 0.00 0.00 72 1021.5
20260505182006 52 14 0.9 2.6 0.00 0.00 0.00 72 1021.6
20260505181518 52 360 0.0 2.6 0.00 0.00 0.00 72 1021.6
20260505180510 52 360 0.9 3.5 0.00 0.00 0.00 72 1021.6
20260505180019 52 17 0.0 3.5 0.00 0.00 0.00 72 1021.6
20260505175504 52 14 0.0 2.6 0.00 0.00 0.00 72 1021.6
20260505175004 52 358 0.0 0.9 0.00 0.00 0.00 72 1021.6
20260505174505 52 354 0.0 4.3 0.00 0.00 0.00 71 1021.7
20260505173505 52 354 0.9 2.6 0.00 0.00 0.00 71 1021.7
20260505173010 52 353 0.9 2.6 0.00 0.00 0.00 72 1021.8
20260505172507 52 353 0.9 4.3 0.00 0.00 0.00 72 1021.8
20260505172008 52 351 0.9 4.3 0.00 0.00 0.00 72 1021.9
20260505171008 51 359 0.9 4.3 0.00 0.00 0.00 73 1021.9
20260505170509 51 339 0.9 3.5 0.00 0.00 0.00 73 1021.9
20260505170006 52 335 0.0 2.6 0.00 0.00 0.00 72 1022.0
20260505165510 52 314 0.9 3.5 0.00 0.00 0.00 72 1022.0
20260505165005 52 319 1.7 6.1 0.00 0.00 0.00 72 1022.0
20260505164524 52 334 1.7 6.1 0.00 0.00 0.00 71 1022.1
20260505164007 52 3 2.6 6.1 0.00 0.00 0.00 72 1022.1
20260505163503 52 345 2.6 6.1 0.00 0.00 0.00 71 1022.1
20260505162506 51 2 3.5 7.0 0.00 0.00 0.00 73 1022.2
20260505162007 51 8 1.7 4.3 0.00 0.00 0.00 73 1022.3
20260505161513 51 8 1.7 4.3 0.00 0.00 0.00 72 1022.4
20260505161008 51 4 1.7 4.3 0.00 0.00 0.00 72 1022.3
20260505160511 51 17 1.7 5.2 0.00 0.00 0.00 72 1022.4
20260505153028 51 2 1.7 4.3 0.00 0.00 0.00 73 1022.7
20260505152511 51 22 2.6 4.3 0.00 0.00 0.00 73 1022.7
20260505152012 51 335 0.0 5.2 0.00 0.00 0.00 73 1022.8
20260505151006 51 358 3.5 6.1 0.00 0.00 0.00 72 1022.8
20260505150509 52 7 1.7 5.2 0.00 0.00 0.00 72 1022.8
20260505140511 52 20 0.0 2.6 0.00 0.00 0.00 69 1022.8
20260505125008 53 17 1.7 3.5 0.00 0.00 0.00 69 1023.2
20260505124502 53 35 0.0 2.6 0.00 0.00 0.00 69 1023.2
20260505124006 53 42 0.9 1.7 0.00 0.00 0.00 69 1023.3
20260505123506 53 42 0.0 2.6 0.00 0.00 0.00 69 1023.4
20260505123003 53 42 0.0 2.6 0.00 0.00 0.00 69 1023.5
20260505122504 53 24 0.9 2.6 0.00 0.00 0.00 69 1023.6
20260505122004 53 25 0.0 2.6 0.00 0.00 0.00 69 1023.6
20260505121506 53 41 0.0 3.5 0.00 0.00 0.00 70 1023.6
20260505121005 53 41 0.0 3.5 0.00 0.00 0.00 70 1023.6
20260505120508 53 41 0.9 2.6 0.00 0.00 0.00 70 1023.7
20260505115502 53 50 0.0 2.6 0.00 0.00 0.00 70 1023.7
20260505114505 53 27 0.0 0.0 0.00 0.00 0.00 70 1023.7
20260505113504 53 27 0.0 2.6 0.00 0.00 0.00 70 1023.8
20260505113004 53 27 0.0 2.6 0.00 0.00 0.00 70 1023.7
20260505112507 53 27 0.0 0.9 0.00 0.00 0.00 70 1023.7
20260505112003 53 27 0.0 0.0 0.00 0.00 0.00 70 1023.6
20260505111505 53 27 0.0 0.0 0.00 0.00 0.00 70 1023.6
20260505111004 53 27 0.0 0.0 0.00 0.00 0.00 70 1023.5
20260505110504 53 27 0.0 2.6 0.00 0.00 0.00 70 1023.6
20260505102007 53 14 0.0 0.0 0.00 0.00 0.00 70 1023.7
20260505101507 53 14 0.0 0.0 0.00 0.00 0.00 70 1023.7
20260505101002 53 14 0.0 0.0 0.00 0.00 0.00 70 1023.6
20260505100503 53 14 0.0 0.0 0.00 0.00 0.00 70 1023.6
20260505100005 53 212 0.0 0.0 0.00 0.00 0.00 70 1023.6
20260505095507 53 212 0.0 0.0 0.00 0.00 0.00 70 1023.6
20260505095007 53 212 0.0 0.0 0.00 0.00 0.00 69 1023.6
20260505094505 53 212 0.0 0.0 0.00 0.00 0.00 69 1023.6
20260505094004 53 212 0.0 0.0 0.00 0.00 0.00 69 1023.6
20260505093505 53 212 0.0 0.0 0.00 0.00 0.00 70 1023.6
20260505093012 53 212 0.0 0.0 0.00 0.00 0.00 70 1023.6
20260505092505 53 212 0.0 0.0 0.00 0.00 0.00 70 1023.5
20260505092006 53 212 0.0 0.0 0.00 0.00 0.00 69 1023.6
20260505091514 53 212 0.0 0.9 0.00 0.00 0.00 69 1023.6
20260505091006 53 212 0.0 0.9 0.00 0.00 0.00 69 1023.6
20260505090504 53 212 0.0 0.9 0.00 0.00 0.00 68 1023.6
20260505090016 53 212 0.0 0.0 0.00 0.00 0.00 68 1023.5
20260505085004 54 212 0.0 0.0 0.00 0.00 0.00 68 1023.2
20260505084505 54 212 0.0 0.0 0.00 0.00 0.00 69 1023.2
20260505084004 54 212 0.0 0.0 0.00 0.00 0.00 69 1023.2
20260505083504 54 212 0.0 0.9 0.00 0.00 0.00 69 1023.2
20260505083008 54 212 0.0 0.9 0.00 0.00 0.00 70 1023.2
20260505082504 54 212 0.0 0.0 0.00 0.00 0.00 71 1023.2
20260505082006 54 212 0.0 0.0 0.00 0.01 0.00 71 1023.1
20260505081507 54 212 0.0 0.0 0.00 0.01 0.00 70 1023.1
20260505081006 54 212 0.0 2.6 0.00 0.01 0.00 70 1023.1
20260505080510 54 212 0.0 2.6 0.00 0.02 0.00 70 1023.0
20260505075510 54 148 0.0 0.0 0.00 0.03 0.00 71 1022.8
20260505075007 54 148 0.0 0.0 0.00 0.03 0.00 71 1022.7
20260505074522 54 148 0.0 2.6 0.00 0.03 0.00 71 1022.6
20260505074009 54 148 0.0 3.5 0.00 0.03 0.00 71 1022.6
20260505073505 54 148 1.7 3.5 0.00 0.03 0.00 71 1022.6
20260505073008 54 137 0.0 3.5 0.00 0.03 0.00 71 1022.6
20260505072505 55 130 1.7 4.3 0.00 0.03 0.00 71 1022.5
20260505072005 55 133 2.6 4.3 0.00 0.03 0.00 70 1022.5
20260505071509 55 145 1.7 3.5 0.00 0.03 0.00 70 1022.3
20260505071005 55 154 0.9 3.5 0.00 0.03 0.00 70 1022.3
20260505070508 55 172 0.9 2.6 0.00 0.03 0.00 70 1022.3
20260505070019 55 189 0.0 2.6 0.00 0.03 0.00 70 1022.3
20260505065507 55 189 1.7 2.6 0.00 0.03 0.00 69 1022.2
20260505065007 55 189 1.7 2.6 0.00 0.03 0.00 69 1022.2
20260505064514 55 189 0.0 4.3 0.00 0.03 0.00 69 1022.1
20260505064005 55 175 1.7 4.3 0.00 0.03 0.00 67 1022.1
20260505063509 56 193 1.7 7.0 0.00 0.03 0.00 67 1021.9
20260505063013 56 180 2.6 7.0 0.00 0.03 0.00 66 1021.9
20260505062511 56 210 3.5 5.2 0.00 0.03 0.00 65 1021.9
20260505062009 56 190 2.6 4.3 0.00 0.03 0.00 65 1021.9
20260505061509 56 205 2.6 6.1 0.00 0.03 0.00 65 1021.9
20260505061010 56 172 2.6 7.0 0.00 0.03 0.00 65 1021.9
20260505060506 56 192 2.6 7.8 0.00 0.03 0.00 65 1021.8
20260505060010 56 202 4.3 7.8 0.00 0.03 0.00 63 1021.8
20260505055507 56 239 3.5 5.2 0.00 0.03 0.00 63 1021.7
20260505055007 56 224 2.6 6.1 0.00 0.03 0.00 62 1021.7
20260505054530 56 248 1.7 6.1 0.00 0.03 0.00 63 1021.7
20260505054008 56 238 3.5 6.1 0.00 0.03 0.00 62 1021.6
20260505053511 56 250 1.7 5.2 0.00 0.03 0.00 63 1021.5
20260505053023 56 193 0.9 7.0 0.00 0.03 0.00 66 1021.4
20260505052508 56 233 3.5 8.7 0.00 0.03 0.00 64 1021.4
20260505052010 56 274 4.3 8.7 0.00 0.03 0.00 62 1021.3
20260505051522 56 261 5.2 7.8 0.00 0.03 0.00 63 1021.3
20260505051007 56 261 0.0 0.0 0.00 0.03 0.00 63 1021.4
20260505050513 56 201 0.0 0.0 0.00 0.03 0.00 63 1021.4
20260505041522 55 271 0.9 7.8 0.00 0.03 0.00 65 1021.2
20260505041009 55 294 4.3 7.0 0.00 0.03 0.00 66 1021.2
20260505040511 55 231 3.5 7.0 0.00 0.03 0.00 65 1021.1
20260505040030 55 243 2.6 7.0 0.00 0.03 0.00 65 1021.1
20260505035507 55 256 2.6 6.1 0.00 0.03 0.00 67 1021.1
20260505035007 55 237 2.6 8.7 0.00 0.03 0.00 67 1021.1
20260505034505 55 236 4.3 8.7 0.00 0.03 0.00 67 1021.1
20260505034004 55 248 3.5 9.6 0.00 0.03 0.00 66 1021.1
20260505033506 55 255 2.6 9.6 0.00 0.03 0.00 67 1021.2
20260505033015 55 210 3.5 7.8 0.00 0.03 0.00 67 1021.1
20260505032507 54 267 2.6 7.0 0.00 0.03 0.00 68 1021.0
20260505031519 54 260 4.3 7.0 0.00 0.03 0.00 68 1021.1
20260505031007 54 241 3.5 10.4 0.00 0.03 0.00 67 1021.2
20260505030504 54 245 5.2 10.4 0.00 0.03 0.00 68 1021.2
20260505030036 54 222 4.3 7.8 0.00 0.03 0.00 68 1021.2
20260505025508 54 253 3.5 11.3 0.00 0.03 0.00 68 1021.2
20260505025006 53 263 6.1 11.3 0.00 0.03 0.00 70 1021.2
20260505024516 53 234 4.3 10.4 0.00 0.03 0.00 70 1021.2
20260505024004 53 233 5.2 10.4 0.00 0.03 0.00 70 1021.2
20260505023504 54 245 5.2 8.7 0.00 0.03 0.00 69 1021.3
20260505023016 54 254 6.1 8.7 0.00 0.03 0.00 68 1021.4
20260505022506 54 262 4.3 8.7 0.00 0.03 0.00 69 1021.4
20260505022008 54 289 3.5 9.6 0.00 0.03 0.00 68 1021.4
20260505021008 53 250 2.6 10.4 0.00 0.03 0.00 70 1021.5
20260505020507 54 260 6.1 11.3 0.00 0.03 0.00 71 1021.6
20260505020010 54 254 7.0 11.3 0.00 0.03 0.00 70 1021.5
20260505015509 54 258 7.8 11.3 0.00 0.03 0.00 69 1021.6
20260505014532 54 252 7.0 11.3 0.00 0.03 0.00 70 1021.6
20260505013507 54 245 6.1 13.0 0.00 0.03 0.00 69 1021.7
20260505013017 54 241 7.0 13.0 0.00 0.03 0.00 68 1021.6
20260505012507 54 262 5.2 12.2 0.00 0.03 0.00 68 1021.7
20260505012006 55 277 5.2 11.3 0.00 0.03 0.00 67 1021.7
20260505011515 54 247 7.0 19.1 0.00 0.03 0.00 68 1021.6
20260505011007 54 230 10.4 19.1 0.00 0.03 0.00 68 1021.5
20260505010507 54 256 13.0 18.2 0.00 0.03 0.00 67 1021.4
20260505010020 54 231 7.0 12.2 0.00 0.03 0.00 69 1021.5
20260505005512 54 218 7.8 13.9 0.00 0.03 0.00 69 1021.4
20260505005008 54 264 8.7 13.9 0.00 0.03 0.00 69 1021.4
20260505004010 55 234 8.7 13.9 0.00 0.03 0.00 70 1021.3
20260505003508 54 242 7.0 13.0 0.00 0.03 0.00 72 1021.2
20260505003015 54 233 6.1 11.3 0.00 0.03 0.00 71 1021.2
20260505002509 54 287 7.8 10.4 0.00 0.03 0.00 71 1021.1
20260505002008 53 242 5.2 12.2 0.00 0.03 0.00 72 1021.1
20260505001510 53 210 7.0 12.2 0.00 0.03 0.00 72 1020.9
20260505001007 53 241 8.7 13.0 0.00 0.03 0.00 72 1020.9
20260505000511 54 270 8.7 13.0 0.00 0.03 0.00 74 1020.9
20260505000018 53 233 7.8 11.3 0.00 0.03 0.00 75 1021.0
20260504235507 53 254 6.1 9.6 0.00 0.03 0.00 78 1020.9
20260504235008 52 254 4.3 9.6 0.00 0.03 0.00 78 1020.9
20260504234521 52 278 6.1 8.7 0.00 0.03 0.00 79 1020.9
20260504234008 52 263 3.5 8.7 0.00 0.03 0.00 79 1020.9
20260504233025 52 256 4.3 9.6 0.00 0.03 0.00 81 1020.8
20260504232014 52 253 6.1 11.3 0.00 0.03 0.00 82 1020.8
20260504231523 51 241 6.1 11.3 0.00 0.03 0.00 83 1020.9
20260504231011 51 266 6.1 10.4 0.00 0.03 0.00 84 1020.8
20260504230513 51 256 3.5 7.8 0.00 0.03 0.00 86 1020.6
20260504230022 51 247 0.9 6.1 0.00 0.03 0.00 86 1020.7
20260504225508 51 280 2.6 6.1 0.00 0.03 0.00 86 1020.6
20260504225011 51 305 2.6 5.2 0.00 0.03 0.00 86 1020.4
20260504224518 51 299 0.0 2.6 0.00 0.03 0.00 86 1020.5
20260504224007 50 310 0.0 2.6 0.00 0.03 0.00 86 1020.4
20260504222510 51 287 0.9 5.2 0.00 0.03 0.00 86 1020.2
20260504222010 51 285 2.6 6.1 0.00 0.03 0.00 86 1020.1
20260504221536 51 297 2.6 6.1 0.00 0.03 0.00 85 1020.0
20260504221011 51 320 0.9 5.2 0.00 0.03 0.00 85 1020.0
20260504220508 51 322 2.6 5.2 0.00 0.03 0.00 85 1020.0
20260504220029 51 314 0.9 4.3 0.00 0.03 0.00 85 1019.9
20260504215509 51 25 0.9 3.5 0.00 0.03 0.00 84 1019.8
20260504215010 51 341 0.9 4.3 0.00 0.03 0.00 84 1019.7
20260504214006 51 337 2.6 4.3 0.00 0.03 0.00 84 1019.4
20260504213509 51 15 2.6 4.3 0.00 0.03 0.00 84 1019.2
20260504213019 51 8 0.0 2.6 0.00 0.03 0.00 84 1019.1
20260504212510 51 8 0.0 4.3 0.00 0.03 0.00 84 1019.2
20260504212005 51 352 2.6 4.3 0.00 0.03 0.00 84 1019.2
20260504211507 51 324 2.6 3.5 0.00 0.03 0.00 84 1019.2
20260504211004 51 311 1.7 4.3 0.00 0.03 0.00 84 1019.1
20260504210505 51 304 0.9 4.3 0.00 0.03 0.00 84 1019.1
20260504210008 51 240 0.0 3.5 0.00 0.03 0.00 84 1019.1
20260504205504 51 240 0.0 5.2 0.00 0.03 0.00 84 1018.9
20260504204514 50 359 2.6 4.3 0.00 0.03 0.00 84 1018.6
20260504204008 50 4 1.7 5.2 0.00 0.03 0.00 84 1018.5
20260504203505 50 5 1.7 5.2 0.00 0.03 0.00 84 1018.4
20260504203020 50 13 2.6 4.3 0.00 0.03 0.00 84 1018.3
20260504202505 50 342 2.6 5.2 0.00 0.03 0.00 84 1018.2
20260504202010 50 348 2.6 6.1 0.00 0.03 0.00 84 1018.1
20260504201519 50 324 1.7 6.1 0.00 0.03 0.00 84 1018.1